カタログに戻る

ONEWEB-0518

運用中通信PO
NORAD 54136·PAYLOAD·🇬🇧 United Kingdom

打ち上げ Oct 22, 2022 から Satish Dhawan Space Centre

Loading…

次のパス (今後24時間)

TLE

最新Source: CelesTrak SupGP

元期: Sep 14, 2026, 18:49 UTC

1 54136C 22138Z   26257.78456435 -.00000773  00000+0 -19329-2 0  2570
2 54136  87.9112 287.1239 0001796  89.6914  21.9616 13.19725676    14

AllMySatでONEWEB-0518をリアルタイム追跡

Download on the App Store